Location: Mount Lemmon
(32.4432°N, 110.7577°W)
Time: 06:25:14
(UTC-07:00)

Tiangong 1 - Visible Passes

Search period start: 25 September 2017 00:00
Search period end: 05 October 2017 00:00
Orbit: 303 x 327 km, 42.8° (Epoch: 25 September)

Date Brightness Start Highest point End Pass type
(mag) Time Alt. Az. Time Alt. Az. Time Alt. Az.
25 Sep 1.7 04:53:40 35° N 04:54:11 40° NNE 04:56:43 10° E visible
26 Sep 0.5 05:06:58 47° W 05:07:30 66° SW 05:10:08 10° SE visible
27 Sep 2.1 05:20:19 20° SW 05:20:37 21° SW 05:22:41 10° SSE visible
01 Oct 2.1 19:15:19 10° SSW 19:17:06 24° SSE 19:17:06 24° SSE visible
02 Oct 1.0 19:27:35 10° WSW 19:29:49 58° SW 19:29:49 58° SW visible
03 Oct 2.6 19:40:24 10° W 19:42:16 29° WNW 19:42:16 29° WNW visible
04 Oct 3.8 19:53:37 10° WNW 19:54:31 15° NW 19:54:31 15° NW visible
